Flag Weather past 2 weeks in El Monte, California, U.S.A.

Now
56 °F

Sunny.


Feels Like: 56 °F
Forecast: 53 / 78 °F
Wind: No wind

Location: Fullerton Municipal Airport

Current Time: Nov 24, 2014 at 8:48:24 AM

Latest Report: Nov 24, 2014 at 7:53 AM


Visibility: 10 mi

Pressure: 30.18 "Hg

Humidity: 44%

Dew point: 34 °F

Location of El MonteLocation

Historic Weather in El Monte — Graph

°F

El Monte temperature yesterday

Maximum temperature yesterday: 79 °F (at 12:53 PM)
Minimum temperature yesterday: 52 °F (at 5:53 AM)
Average temperature yesterday: 63 °F

Past Weeks' High & Low Weather Summary

 TemperatureHumidityPressure
High81 °F (Nov 17, 1:53 PM)93% (Nov 9, 8:00 AM)30.18 "Hg (Nov 9, 8:00 AM)
Low48 °F (Nov 24, 5:53 AM)3% (Nov 16, 2:53 PM)29.80 "Hg (Nov 9, 3:53 PM)
Average64 °F57%30.02 "Hg
* Reported Nov 9 8:00 AM — Nov 24 7:53 AM, El Monte, Weather by CustomWeather, © 2014

Note: Actual official high and low records may vary slightly from our data, if they occured in-between our weather recording intervals... More about our weather records

Advertising

El Monte weather history for previous 24 hours

 ConditionsComfort  
Time TempWeatherWind HumidityBarometerVisibility
7:53 AM
Nov 24
56 °FSunny.No wind44%30.18 "Hg10 mi
6:53 AM49 °FSunny.No wind50%30.16 "Hg10 mi
5:53 AM48 °FClear.No wind54%30.14 "Hg10 mi
4:53 AM49 °FClear.No wind48%30.12 "Hg10 mi
3:53 AM51 °FClear.No wind41%30.12 "Hg10 mi
2:53 AM50 °FClear.No wind48%30.12 "Hg10 mi
1:53 AM53 °FClear.No wind37%30.13 "Hg10 mi
12:53 AM53 °FClear.No wind43%30.13 "Hg10 mi
11:53 PM
Nov 23
56 °FClear.No wind32%30.14 "Hg10 mi
10:53 PM57 °FClear.3 mph29%30.13 "Hg10 mi
9:53 PM60 °FClear.7 mph19%30.12 "Hg10 mi
8:53 PM60 °FClear.No wind31%30.12 "Hg10 mi
7:53 PM61 °FClear.No wind46%30.11 "Hg10 mi
6:53 PM64 °FClear.No wind41%30.09 "Hg10 mi
5:53 PM67 °FClear.3 mph33%30.08 "Hg10 mi
4:53 PM73 °FClear.No wind24%30.06 "Hg10 mi
3:53 PM76 °FSunny.3 mph24%30.06 "Hg10 mi
2:53 PM78 °FSunny.5 mph16%30.04 "Hg10 mi
1:53 PM79 °FSunny.No wind15%30.04 "Hg10 mi
12:53 PM79 °FSunny.No wind18%30.05 "Hg10 mi
11:53 AM76 °FSunny.3 mph23%30.08 "Hg10 mi
10:53 AM73 °FSunny.6 mph40%30.10 "Hg10 mi
9:53 AM68 °FSunny.5 mph57%30.12 "Hg10 mi
8:53 AM64 °FSunny.No wind68%30.12 "Hg10 mi
Weather by CustomWeather, © 2014

See weather overviewHow to use our weather pages